{"data":{"norad_id":57992,"epoch":"2026-05-24T21:24:08.989344Z","epoch_age_seconds":87491,"freshness":"FRESH","line1":"1 57992U 23153B   26144.89177071  .00001395  00000+0  60244-4 0  9990","line2":"2 57992  43.0051 356.4368 0001746 271.1485  88.9167 15.27570060146450","mean_motion":15.2757006,"eccentricity":0.0001746,"inclination_deg":43.0051,"raan_deg":356.4368,"arg_perigee_deg":271.1485,"mean_anomaly_deg":88.9167,"bstar":6.0244e-5,"rev_number":14645,"period_min":94.267362113657,"perigee_km":481.88089184777,"apogee_km":484.27682842613,"semimajor_km":6861.2158601369,"source":"CELESTRAK","updated_at":"2026-05-25T13:38:18.489551Z"}}